FW8077 Weather Reports


time (UTC)temp
F
wind
direction
speed
knots
gust
knots
rain 1hr
in
rain 24hr
in
rain mn
in
humidity
%
barometer
mb
20260504214805 62 325 6.1 8.7 0.00 0.00 0.00 38 1011.7
20260504214302 62 344 4.3 7.0 0.00 0.00 0.00 39 1011.7
20260504213759 62 292 6.1 7.8 0.00 0.00 0.00 39 1011.8
20260504213255 62 262 5.2 8.7 0.00 0.00 0.00 40 1011.7
20260504212752 62 314 2.6 7.8 0.00 0.00 0.00 43 1011.8
20260504212248 62 328 4.3 7.0 0.00 0.00 0.00 42 1011.8
20260504211746 61 307 6.1 7.0 0.00 0.00 0.00 42 1011.9
20260504211242 61 314 3.5 5.2 0.00 0.00 0.00 46 1011.9
20260504210740 60 169 0.0 1.7 0.00 0.00 0.00 46 1011.9
20260504210237 59 172 0.0 1.7 0.00 0.00 0.00 49 1011.8
20260504205733 58 137 0.0 1.7 0.00 0.00 0.00 50 1012.0
20260504205231 59 174 1.7 5.2 0.00 0.00 0.00 50 1012.4
20260504204729 59 292 2.6 2.6 0.00 0.00 0.00 44 1012.6
20260504204227 61 349 7.0 13.9 0.00 0.00 0.00 41 1012.8
20260504203727 61 316 1.7 4.3 0.00 0.00 0.00 39 1012.7
20260504203224 61 325 6.1 9.6 0.00 0.00 0.00 39 1012.6
20260504202723 61 320 4.3 6.1 0.00 0.00 0.00 39 1012.8
20260504202221 61 321 2.6 5.2 0.00 0.00 0.00 39 1012.8
20260504201718 61 35 3.5 7.0 0.00 0.00 0.00 38 1012.7
20260504201215 62 88 2.6 12.2 0.00 0.00 0.00 39 1012.6
20260504200713 62 31 4.3 8.7 0.00 0.00 0.00 39 1012.6
20260504200208 62 28 7.0 13.9 0.00 0.00 0.00 38 1012.4
20260504195705 62 71 3.5 11.3 0.00 0.00 0.00 38 1012.1
20260504195201 62 50 0.9 7.8 0.00 0.00 0.00 37 1012.4
20260504194658 62 328 7.0 11.3 0.00 0.00 0.00 36 1012.2
20260504194154 62 22 6.1 15.6 0.00 0.00 0.00 36 1012.5
20260504193651 62 320 7.8 19.1 0.00 0.00 0.00 36 1012.2
20260504193149 63 330 9.6 19.1 0.00 0.00 0.00 35 1012.0
20260504192646 64 305 6.1 25.2 0.00 0.00 0.00 34 1011.7
20260504192144 66 347 17.4 21.7 0.00 0.00 0.00 29 1011.5
20260504191642 66 273 4.3 5.2 0.00 0.00 0.00 30 1011.2
20260504191138 66 336 2.6 5.2 0.00 0.00 0.00 29 1011.2
20260504190634 65 8 2.6 5.2 0.00 0.00 0.00 29 1011.0
20260504190131 65 148 0.0 5.2 0.00 0.00 0.00 37 1010.9
20260504185628 66 43 1.7 6.1 0.00 0.00 0.00 30 1010.9
20260504185124 66 50 3.5 7.0 0.00 0.00 0.00 27 1010.6
20260504184620 67 5 7.0 9.6 0.00 0.00 0.00 26 1010.7
20260504184115 69 76 3.5 9.6 0.00 0.00 0.00 25 1011.0
20260504183613 70 170 0.0 0.9 0.00 0.00 0.00 24 1010.5
20260504183111 70 188 0.0 0.9 0.00 0.00 0.00 24 1010.4
20260504182608 69 204 0.9 2.6 0.00 0.00 0.00 25 1010.5
20260504182105 69 148 0.9 5.2 0.00 0.00 0.00 23 1010.4
20260504181602 69 16 1.7 9.6 0.00 0.00 0.00 23 1010.4
20260504181100 69 320 4.3 7.8 0.00 0.00 0.00 23 1010.3
20260504180559 70 307 4.3 9.6 0.00 0.00 0.00 23 1010.3
20260504180057 70 299 4.3 8.7 0.00 0.00 0.00 23 1010.3
20260504175554 70 8 4.3 7.8 0.00 0.00 0.00 24 1010.4
20260504175051 70 314 5.2 9.6 0.00 0.00 0.00 22 1010.6
20260504174549 72 325 9.6 15.6 0.00 0.00 0.00 23 1010.6
20260504174045 73 285 2.6 6.1 0.00 0.00 0.00 22 1010.6
20260504173542 73 269 4.3 7.0 0.00 0.00 0.00 22 1010.7
20260504173040 72 215 5.2 8.7 0.00 0.00 0.00 23 1010.6
20260504172536 72 194 2.6 8.7 0.00 0.00 0.00 21 1010.9
20260504172032 71 297 5.2 12.2 0.00 0.00 0.00 22 1010.6
20260504171529 72 254 7.0 9.6 0.00 0.00 0.00 22 1010.9
20260504171026 72 281 4.3 8.7 0.00 0.00 0.00 22 1010.7
20260504170522 71 321 6.1 13.9 0.00 0.00 0.00 21 1010.9
20260504160442 70 342 0.9 1.7 0.00 0.00 0.00 25 1011.0
20260504150906 59 169 0.9 0.9 0.00 0.00 0.00 44 1011.7
20260504150403 58 107 0.0 0.9 0.00 0.00 0.00 40 1011.7
20260504141333 51 171 0.9 2.6 0.00 0.00 0.00 58 1011.8
20260504140829 51 177 0.9 1.7 0.00 0.00 0.00 62 1012.0
20260504140325 50 172 0.0 1.7 0.00 0.00 0.00 62 1011.9
20260504130754 42 197 0.0 0.0 0.00 0.00 0.00 75 1012.0
20260504130250 41 189 0.0 0.9 0.00 0.00 0.00 75 1011.9
20260504120214 39 209 0.0 0.9 0.00 0.00 0.00 80 1012.0
20260504110641 38 224 0.0 0.9 0.00 0.00 0.00 78 1011.9
20260504110137 39 233 0.9 0.9 0.00 0.00 0.00 77 1012.0
20260504100603 40 203 0.0 0.0 0.00 0.00 0.00 74 1012.4
20260504081956 43 216 0.0 0.9 0.00 0.00 0.00 64 1013.2
20260504081454 43 155 0.9 0.9 0.00 0.00 0.00 67 1013.2
20260504080949 43 276 0.9 0.9 0.00 0.00 0.00 67 1013.3
20260504080446 43 276 0.9 0.9 0.00 0.00 0.00 65 1013.4
20260504050259 57 300 2.6 4.3 0.00 0.00 0.00 36 1014.3
20260504045756 57 330 2.6 2.6 0.00 0.00 0.00 35 1014.6
20260504045250 57 295 0.9 2.6 0.00 0.00 0.00 35 1014.6
20260504044748 58 274 0.9 2.6 0.00 0.00 0.00 35 1014.7
20260504044246 58 293 2.6 5.2 0.00 0.00 0.00 33 1014.4
20260504043743 59 321 2.6 5.2 0.00 0.00 0.00 33 1014.6
20260504043240 59 326 2.6 5.2 0.00 0.00 0.00 33 1014.6
20260504042738 59 4 2.6 6.1 0.00 0.00 0.00 33 1014.4
20260504042234 60 250 0.9 4.3 0.00 0.00 0.00 32 1014.7
20260504041730 60 278 1.7 5.2 0.00 0.00 0.00 32 1014.7
20260504041226 60 5 4.3 7.0 0.00 0.00 0.00 32 1014.4
20260504040722 61 323 3.5 6.1 0.00 0.00 0.00 31 1014.7
20260504040220 61 345 6.1 7.0 0.00 0.00 0.00 31 1014.6
20260504035716 62 14 5.2 7.0 0.00 0.00 0.00 29 1014.4
20260504035213 62 112 0.9 2.6 0.00 0.00 0.00 28 1014.3
20260504034711 62 332 2.6 7.0 0.00 0.00 0.00 28 1014.4
20260504034208 62 305 2.6 5.2 0.00 0.00 0.00 27 1014.6
20260504033705 63 326 5.2 6.1 0.00 0.00 0.00 26 1014.4
20260504033202 63 285 0.9 1.7 0.00 0.00 0.00 27 1014.3
20260504032659 64 322 1.7 2.6 0.00 0.00 0.00 25 1014.2
20260504032156 64 96 0.9 2.6 0.00 0.00 0.00 25 1014.2
20260504031653 63 60 0.9 2.6 0.00 0.00 0.00 25 1014.0
20260504031149 63 326 2.6 2.6 0.00 0.00 0.00 25 1013.8
20260504030646 63 83 0.0 0.9 0.00 0.00 0.00 26 1013.6
20260504030143 64 263 1.7 2.6 0.00 0.00 0.00 27 1013.5
20260504025640 64 287 0.9 1.7 0.00 0.00 0.00 27 1013.6
20260504025137 64 344 0.0 2.6 0.00 0.00 0.00 27 1013.4
20260504024634 62 17 0.9 4.3 0.00 0.00 0.00 31 1013.3
20260504024130 60 35 0.9 1.7 0.00 0.00 0.00 36 1013.5
20260504023627 61 260 0.0 0.0 0.00 0.00 0.00 35 1013.2
20260504023123 61 260 0.0 0.9 0.00 0.00 0.00 35 1013.2
20260504022620 62 260 0.0 0.9 0.00 0.00 0.00 31 1013.2
20260504022115 62 260 0.0 0.0 0.00 0.00 0.00 30 1013.1
20260504021614 62 261 0.0 0.0 0.00 0.00 0.00 30 1012.7
20260504021110 63 262 0.9 0.9 0.00 0.00 0.00 29 1013.1
20260504020607 64 289 0.0 0.0 0.00 0.00 0.00 31 1013.1
20260504020103 64 289 0.0 0.9 0.00 0.00 0.00 28 1012.9
20260504015600 64 291 0.0 0.0 0.00 0.00 0.00 29 1013.1
20260504015056 65 292 0.0 0.0 0.00 0.00 0.00 27 1012.9
20260504014552 66 350 0.0 0.0 0.00 0.00 0.00 27 1013.1
20260504014050 66 350 0.0 0.9 0.00 0.00 0.00 27 1012.9
20260504013547 68 350 0.0 0.0 0.00 0.00 0.00 25 1013.1
20260504013044 67 355 0.9 1.7 0.00 0.00 0.00 24 1013.1
20260504012541 68 198 0.0 0.9 0.00 0.00 0.00 25 1012.9
20260504012039 68 217 0.0 0.9 0.00 0.00 0.00 26 1013.1
20260504011536 68 223 0.0 1.7 0.00 0.00 0.00 23 1012.9
20260504011032 68 313 2.6 2.6 0.00 0.00 0.00 26 1013.1
20260504010527 69 163 0.0 1.7 0.00 0.00 0.00 22 1013.2
20260504010024 68 174 0.9 1.7 0.00 0.00 0.00 23 1013.1
20260504005521 68 278 1.7 2.6 0.00 0.00 0.00 24 1013.1
20260504005018 69 146 0.9 2.6 0.00 0.00 0.00 22 1012.8
20260504004516 70 172 0.0 0.0 0.00 0.00 0.00 22 1013.1
20260504004013 70 153 0.9 0.9 0.00 0.00 0.00 20 1013.2
20260504003509 70 168 0.0 0.0 0.00 0.00 0.00 22 1013.3
20260504003006 70 180 0.0 0.9 0.00 0.00 0.00 21 1013.2
20260504002503 70 198 0.0 0.9 0.00 0.00 0.00 21 1013.2
20260504002000 70 166 0.0 0.0 0.00 0.00 0.00 23 1013.2
20260504001457 70 174 0.0 0.0 0.00 0.00 0.00 23 1012.9
20260504000953 70 183 0.9 0.9 0.00 0.00 0.00 21 1013.3
20260504000451 70 198 0.0 0.0 0.00 0.00 0.00 19 1013.4
20260503235948 71 202 0.0 0.0 0.00 0.00 0.00 20 1013.2
20260503235446 71 202 0.9 1.7 0.00 0.00 0.00 19 1013.3
20260503234943 71 201 0.0 0.9 0.00 0.00 0.00 20 1013.3
20260503234440 71 309 1.7 4.3 0.00 0.00 0.00 18 1013.4
20260503233938 71 326 5.2 7.0 0.00 0.00 0.00 18 1013.4
20260503233434 71 328 6.1 11.3 0.00 0.00 0.00 18 1013.5
20260503232931 71 313 7.0 8.7 0.00 0.00 0.00 17 1013.5
20260503232428 71 301 2.6 7.0 0.00 0.00 0.00 18 1013.5
20260503231926 71 329 7.0 9.6 0.00 0.00 0.00 17 1013.4
20260503231423 71 226 7.8 12.2 0.00 0.00 0.00 16 1013.1
20260503230919 71 300 6.1 11.3 0.00 0.00 0.00 17 1013.4
20260503230416 72 236 5.2 11.3 0.00 0.00 0.00 17 1013.4
20260503225914 72 334 7.8 12.2 0.00 0.00 0.00 17 1013.2
20260503225410 72 306 5.2 11.3 0.00 0.00 0.00 17 1013.1
20260503224906 72 302 4.3 11.3 0.00 0.00 0.00 18 1013.3
20260503224403 72 311 3.5 5.2 0.00 0.00 0.00 17 1013.3
20260503223901 72 347 3.5 5.2 0.00 0.00 0.00 18 1013.1
20260503223359 72 23 2.6 4.3 0.00 0.00 0.00 18 1013.3
20260503222853 72 299 7.0 7.8 0.00 0.00 0.00 18 1013.5
20260503222352 72 321 1.7 7.0 0.00 0.00 0.00 18 1013.4
20260503221850 72 333 4.3 9.6 0.00 0.00 0.00 18 1013.3
20260503221349 72 343 7.8 9.6 0.00 0.00 0.00 18 1013.9
20260503220844 72 186 3.5 7.0 0.00 0.00 0.00 18 1013.8
20260503220341 72 14 4.3 8.7 0.00 0.00 0.00 18 1013.8
20260503215838 72 351 4.3 7.0 0.00 0.00 0.00 19 1013.9
20260503215336 71 323 3.5 6.1 0.00 0.00 0.00 19 1014.2